SCP
-0 0 -0 -0 0 -0 -0 0 0 0 0 0 0 0 0 0 0 0 0 0 0 0 0 0 0 0 1 0 0 0 0 0 0 0 0 0 0 0 0 0 0 0 0 0
0 0 0 -0 0 0 0 0 0 0 0 0 0 0 0 0 0 0 0 0 0 0 0 0 0 0 0 0 0 0 0 0 0 0 0 0 0 0 0 0 0 0 0 0
0 0 0 0 0 0 0 1 0 0 0 0 0 0 0 0 0 0 0 0 0 0 0 0 0 0 0 0 0 0 0 0 0 0 0 0 0 0 0 0 0 0 0 0
0 0 0 0 0 -0 -0 0 0 0 0 0 0 0 0 0 0 0 0 0 0 0 0 0 0 0 0 0 0 0 0 0 0 0 0 0 0 0 0 0 0 0 0 0
0 0 0 0 0 0 0 0 0 0 0 0 0 0 0 0 0 0 0 0 0 0 0 0 0 0 0 0 0 0 0 0 0 0 0 0 0 0 0 0 0 0 0 0
0 0 0 0 0 0 0 0 0 0 0 0 0 0 0 0 0 0 0 0 0 0 0 0 0 0 0 0 0 0 0 0 0 0 0 0 0 0 0 0 0 0 0 0
0 0 0 0 0 0 0 0 0 0 0 0 0 0 0 0 0 0 0 0 0 0 0 0 0 0 0 0 0 0 0 0 0 0 0 0 0 0 0 0 0 0 0 0
0 0 0 0 0 0 0 0 0 0 0 0 0 0 0 0 0 0 1 0 0 0 0 0 0 0 0 0 0 0 0 0 0 0 0 0 0 0 0 0 0 0 0 0
0 0 0 0 0 1 0 0 0 0 0 0 0 0 0 0 0 1 1 0 0 0 0 0 0 0 0 0 0 0 -0 0 0 0 0 0 0 0 0 0 0 0 0 0
0 0 0 0 0 0 0 0 0 0 0 0 0 0 1 1 0 0 0 0 0 0 0 0 0 0 0 0 0 0 0 0 0 0 0 0 0 0 0 0 0 0 0 0
0 0 0 0 0 0 0 0 0 0 1 0 0 0 1 1 0 0 0 0 0 0 0 0 0 0 0 0 0 0 0 0 0 0 0 0 0 0 0 0 0 0 0 0
0 0 0 1 0 0 0 0 0 1 1 1 0 0 0 0 0 0 0 0 0 0 0 0 0 0 0 0 0 0 0 0 0 0 0 0 0 0 0 0 0 0 0 0
0 -0 0 0 0 0 0 0 0 1 1 1 0 0 0 0 0 0 0 0 0 0 0 0 0 0 0 0 0 0 0 0 0 0 0 0 0 0 0 0 0 0 0 0
-0 0 0 0 0 0 0 1 1 1 1 0 0 0 0 0 0 0 0 0 0 0 0 0 0 0 0 0 0 0 0 0 0 0 0 0 0 0 0 0 0 0 0 0
0 0 0 0 0 0 0 0 0 1 0 0 0 0 0 0 0 0 0 0 0 0 0 0 0 0 0 0 0 0 0 0 0 0 0 0 0 0 0 0 0 0 0 0
0 0 0 0 0 0 0 0 0 0 0 0 0 0 0 0 0 0 0 0 0 0 0 0 0 0 0 0 0 0 0 0 0 0 0 0 0 0 0 0 0 0 0 0
0 0 0 0 0 0 0 0 0 0 0 0 0 0 0 0 0 0 0 0 0 0 0 0 0 0 0 0 0 0 0 0 0 0 0 0 0 0 0 0 0 0 0 0
0 0 0 0 0 0 0 0 0 0 0 0 0 0 0 0 0 0 0 0 0 0 0 -0 0 0 0 0 0 0 0 0 0 0 0 0 0 0 0 0 0 0 0 0
0 0 0 0 0 0 0 1 0 0 0 0 0 0 0 0 0 0 0 0 0 0 0 0 0 0 0 0 0 0 0 0 0 0 0 0 0 0 0 0 0 0 0 0
0 0 0 0 0 1 0 0 0 0 0 0 0 0 0 0 0 0 0 0 0 0 0 0 0 0 0 0 0 0 0 0 0 0 0 0 0 0 0 0 0 0 0 0
0 0 0 0 0 0 0 0 0 0 0 0 0 0 0 0 0 0 0 0 0 0 0 0 0 0 0 0 0 0 0 0 0 0 0 0 0 0 0 0 0 0 0 0
0 0 0 0 0 0 0 0 0 -0 0 0 0 0 0 0 0 0 0 0 0 0 0 0 0 0 0 0 0 0 0 0 0 0 0 0 0 0 0 0 0 0 0 0
0 0 0 0 0 0 0 -0 -0 0 0 0 0 0 0 0 0 0 0 0 0 0 0 0 0 0 0 0 0 0 0 0 0 0 0 0 0 0 0 0 0 0 0 0
0 0 0 0 0 0 -0 -0 0 0 0 0 0 0 0 0 0 0 0 0 0 0 0 0 0 0 0 0 0 0 0 0 0 0 0 0 0 0 0 0 0 0 0 0
0 0 0 0 0 0 -0 0 0 0 0 0 0 0 0 0 0 0 0 0 0 0 0 0 0 0 0 0 0 0 0 0 0 0 0 0 0 0 0 0 0 0 0 0
0 0 0 0 -0 -0 0 0 0 0 0 0 0 0 0 0 0 0 0 0 0 0 0 0 0 0 0 0 0 0 0 0 0 0 0 0 0 0 0 0 0 0 0 0
0 0 0 0 0 0 0 0 0 0 0 0 0 0 0 0 0 0 0 0 0 0 0 0 0 0 0 0 0 0 0 0 0 0 0 0 0 0 0 0 0 0 0 0
Wind_Speed_500mb
8 12 6 5 17 26 25 4 13 7 4 9 11 12 9 42 33 20 18 22 27 25 32 40 54 50 52 29 23 19 13 18 18 13 13 11 14 16 21 26 28 32 31 32
11 8 5 4 12 10 8 9 15 16 2 7 9 25 35 34 29 31 31 33 43 41 49 53 40 36 19 57 43 21 27 27 19 17 18 17 23 26 24 30 27 24 31 36
6 6 2 7 4 8 9 14 11 8 6 2 9 27 29 28 27 31 35 39 34 34 52 41 17 12 23 26 28 8 5 13 22 24 24 29 29 28 27 24 22 26 30 32
5 6 2 8 13 17 20 10 13 10 4 7 10 10 29 26 24 32 34 23 27 31 25 14 35 35 6 11 6 16 12 16 21 11 15 17 16 21 22 23 30 33 28 25
5 2 10 7 4 5 5 6 7 11 3 20 16 17 21 24 29 32 25 28 28 21 29 37 35 17 16 18 20 25 14 4 12 29 10 11 14 19 25 27 33 31 24 19
6 5 10 11 11 15 14 9 7 17 10 9 12 8 10 27 31 30 24 27 28 20 25 29 22 8 22 26 15 16 25 22 16 4 10 25 30 25 26 29 31 28 23 23
6 6 10 10 20 17 11 14 23 16 10 6 3 3 20 30 24 20 18 23 24 24 24 19 8 15 24 23 13 18 14 9 6 3 21 17 22 23 23 28 22 19 21 21
6 5 8 22 15 14 16 35 28 19 14 6 3 11 19 19 17 21 22 26 26 27 26 15 10 17 15 15 11 7 6 6 7 14 16 27 28 28 29 28 20 19 24 27
9 10 9 21 9 17 35 40 22 21 15 12 11 14 14 15 19 24 26 24 22 33 30 14 17 19 15 9 7 11 7 6 20 18 22 31 31 24 25 27 29 30 31 35
6 13 26 5 14 20 28 13 18 26 16 5 6 6 10 12 16 23 24 23 24 28 26 23 18 17 2 7 10 3 8 18 20 21 24 28 25 23 29 30 30 30 33 37
2 14 17 14 22 25 18 17 31 18 9 6 3 3 7 9 15 20 20 16 22 25 26 23 18 15 6 10 18 20 22 23 28 29 32 26 26 25 28 31 34 38 40 44
12 22 14 30 31 28 28 29 20 15 10 9 3 6 4 13 14 18 22 24 26 25 25 24 22 18 14 20 23 25 33 39 37 33 27 22 22 26 25 32 34 35 41 48
10 37 42 34 34 29 32 28 24 21 18 12 6 4 3 2 10 17 22 24 21 23 27 30 27 22 19 19 27 37 45 37 31 25 22 25 30 37 46 49 40 41 41 45
42 37 36 31 33 38 41 36 31 27 20 16 13 5 3 12 18 19 24 22 19 23 27 37 25 18 22 29 34 39 32 34 36 33 29 33 44 49 53 51 49 52 50 54
42 52 29 28 33 37 38 49 41 34 27 16 7 2 9 14 14 22 22 23 25 29 28 30 26 26 26 29 37 34 37 39 42 44 42 42 47 51 51 48 50 51 49 53
32 52 27 39 44 40 50 52 42 31 18 12 7 3 4 8 9 9 8 14 22 29 25 26 28 25 25 23 28 34 36 39 41 44 47 48 52 58 51 46 41 46 52 61
36 35 30 40 45 51 59 46 35 27 19 14 8 6 2 8 13 20 21 26 27 25 28 28 28 25 24 25 32 36 38 41 43 44 44 48 52 43 40 48 61 63 62 59
47 47 44 46 42 53 51 41 33 28 21 19 13 6 8 12 15 20 11 20 21 19 30 24 25 27 27 28 28 30 38 39 37 44 48 49 45 38 45 48 49 52 49 42
61 56 52 48 46 56 59 53 43 24 24 22 9 2 4 9 14 16 21 11 20 20 24 22 23 25 31 29 32 37 36 36 35 33 33 30 33 35 39 37 43 50 48 42
64 62 52 45 50 60 62 47 33 29 27 15 6 1 6 7 12 15 17 15 18 16 14 17 23 28 29 34 34 28 34 33 27 24 31 29 36 39 35 41 45 50 46 41
51 43 43 60 63 53 49 24 25 26 13 5 5 14 16 12 9 14 14 14 15 15 9 19 18 24 33 35 32 30 32 34 33 25 25 31 32 31 41 45 42 42 39 36
23 30 49 65 77 72 50 31 17 10 24 11 9 6 6 6 3 7 10 8 11 9 12 17 23 24 33 23 23 29 30 30 15 27 24 26 27 41 46 41 37 34 34 34
39 46 48 46 21 46 14 29 48 43 25 16 11 13 11 3 2 13 21 19 14 13 18 24 14 24 25 23 25 29 30 25 26 18 23 32 47 51 41 34 31 26 35 43
39 41 30 15 4 30 32 40 32 23 20 12 12 15 13 3 12 13 12 16 19 16 20 15 23 27 28 26 27 23 21 23 27 24 34 45 53 45 28 27 24 29 40 46
33 40 31 23 18 40 52 25 22 18 15 19 19 7 7 16 18 3 8 7 7 10 12 17 24 22 40 38 31 31 23 27 35 36 41 50 51 44 33 28 25 30 36 39
20 29 30 30 38 55 31 26 24 23 19 13 3 5 11 11 6 2 3 7 13 19 25 32 30 29 32 43 28 21 26 30 34 40 39 49 50 37 35 32 31 34 37 35
7 24 16 46 48 40 35 31 30 18 7 6 2 2 3 7 7 13 19 27 35 36 35 34 41 42 39 31 27 28 30 34 40 36 40 47 45 36 36 31 30 31 33 34
Wind_Direction_500mb
220 40 43 26 93 77 62 269 110 267 354 293 264 248 183 64 87 55 3 1 2 357 325 290 252 254 242 214 226 213 233 240 235 232 213 235 221 231 246 265 278 272 284 282
354 64 17 104 64 89 122 174 114 130 171 274 76 82 57 52 44 35 29 9 354 348 342 333 289 261 321 31 305 26 2 299 267 264 243 237 238 243 260 265 268 274 289 287
277 8 36 339 16 18 331 35 125 152 188 71 50 70 53 43 42 20 1 358 360 341 328 334 317 277 272 307 317 273 264 270 263 243 252 241 243 253 265 263 279 299 297 286
237 27 261 235 206 188 124 103 74 79 82 49 72 103 31 44 28 8 359 358 346 345 342 336 331 309 351 313 106 323 223 158 112 162 309 285 262 267 272 286 303 312 301 287
116 164 288 279 202 245 151 196 93 128 67 45 41 36 35 22 17 7 6 360 355 2 344 326 328 322 308 331 313 325 326 187 291 253 292 288 294 289 295 302 305 305 298 285
133 157 210 241 140 114 71 330 119 119 83 39 34 41 276 1 2 3 1 357 355 354 6 345 340 299 307 333 8 31 1 316 292 176 329 326 313 298 301 305 302 295 291 289
144 173 270 253 133 125 99 231 172 147 124 44 52 294 356 1 6 18 22 7 360 8 20 6 334 305 312 314 295 341 354 87 153 154 287 307 321 309 308 314 303 296 299 294
94 110 251 196 133 170 179 161 167 170 161 166 40 10 13 22 34 14 24 13 8 2 1 12 11 339 335 330 18 17 43 119 309 308 314 331 333 329 327 328 324 306 296 294
149 214 308 206 240 151 162 159 165 171 174 141 97 54 38 35 29 36 17 18 11 3 6 5 346 357 13 85 33 38 34 312 312 313 318 330 328 327 334 330 306 299 293 300
91 341 352 242 145 162 161 166 171 171 160 135 93 33 27 23 24 27 19 9 1 1 359 352 358 2 28 3 13 332 289 312 315 315 313 316 309 317 318 308 305 309 309 310
310 278 3 119 166 179 185 196 161 153 152 144 247 5 356 24 5 0 360 2 357 356 8 8 351 342 323 338 337 323 323 332 330 323 317 306 305 311 311 313 307 305 307 314
219 206 180 195 195 207 204 182 187 184 152 166 271 346 344 348 339 342 348 349 357 5 4 358 354 351 340 331 334 338 338 332 328 327 325 330 324 321 318 315 308 307 313 311
226 203 217 205 212 227 215 192 187 180 178 173 149 144 294 298 335 334 341 347 1 0 357 344 329 329 326 339 343 340 333 333 334 331 326 322 324 320 321 329 316 318 311 318
229 196 205 212 222 225 189 181 174 161 154 153 166 180 327 338 342 353 338 338 348 349 350 0 348 346 336 342 339 334 343 349 344 333 328 326 327 324 320 315 318 314 318 322
206 204 226 223 192 177 187 175 167 160 156 159 185 290 324 340 324 316 327 338 335 346 351 347 339 331 325 329 328 330 335 340 341 339 332 326 327 326 326 323 324 319 325 332
218 221 232 209 201 196 190 181 179 161 169 167 170 328 336 313 345 3 9 340 330 331 337 329 327 329 332 335 339 341 339 339 338 336 334 333 331 331 332 334 328 324 333 335
206 206 204 202 220 197 187 185 180 166 159 184 200 196 191 347 357 359 9 14 4 350 347 342 338 350 340 329 329 334 337 339 338 337 336 330 326 329 331 333 329 332 326 329
237 246 248 243 234 191 177 179 175 165 176 184 192 251 317 337 348 359 360 346 353 355 1 1 354 344 347 341 338 346 342 338 338 341 342 338 337 344 353 347 340 343 343 337
254 247 242 227 214 195 183 178 173 175 186 189 200 118 20 343 338 339 344 313 352 2 351 358 0 348 338 342 340 334 336 340 349 360 8 5 354 353 354 355 349 346 345 343
261 260 238 217 197 190 177 174 166 168 174 181 159 62 19 15 20 18 15 8 353 9 2 342 342 334 337 335 336 337 344 343 353 5 354 354 348 348 354 350 344 341 341 338
254 228 192 174 163 145 122 100 124 101 276 199 113 100 74 82 35 351 353 344 344 343 337 322 319 335 339 342 338 332 345 343 348 354 344 334 344 348 344 340 338 338 339 340
236 161 151 154 158 148 137 113 305 136 210 198 187 149 139 115 311 319 347 307 317 317 315 326 334 337 345 346 341 341 333 336 341 334 327 337 344 342 345 347 349 351 354 359
135 136 135 137 3 300 152 171 161 182 179 166 191 234 245 140 315 325 330 328 321 334 328 334 331 343 336 321 323 309 308 314 332 329 339 348 348 345 345 355 359 10 7 2
166 166 185 195 206 292 223 168 180 173 159 175 195 176 165 281 341 348 336 338 336 332 335 342 339 343 337 309 340 332 306 305 308 326 340 343 344 345 346 352 356 350 351 349
256 261 235 232 214 234 203 175 172 191 206 188 181 198 283 321 344 341 319 310 309 334 349 340 329 339 331 319 317 313 301 304 313 322 337 341 344 342 340 337 333 332 339 339
221 206 228 206 195 195 182 171 146 139 149 150 114 350 344 1 3 137 221 316 348 344 337 332 333 340 329 315 303 298 308 305 319 328 338 340 343 334 332 329 329 330 332 333
187 144 169 152 157 152 139 125 132 127 117 69 128 281 271 122 30 353 340 338 336 338 328 324 323 318 317 299 285 291 289 313 320 320 336 338 345 335 332 335 335 334 333 332
Wind_Speed_850mb
8 12 6 5 17 26 25 4 13 7 4 9 11 12 9 42 33 20 18 22 27 25 32 40 54 50 52 29 23 19 13 18 18 13 13 11 14 16 21 26 28 32 31 32
11 8 5 4 12 10 8 9 15 16 2 7 9 25 35 34 29 31 31 33 43 41 49 53 40 36 19 57 43 21 27 27 19 17 18 17 23 26 24 30 27 24 31 36
6 6 2 7 4 8 9 14 11 8 6 2 9 27 29 28 27 31 35 39 34 34 52 41 17 12 23 26 28 8 5 13 22 24 24 29 29 28 27 24 22 26 30 32
5 6 2 8 13 17 20 10 13 10 4 7 10 10 29 26 24 32 34 23 27 31 25 14 35 35 6 11 6 16 12 16 21 11 15 17 16 21 22 23 30 33 28 25
5 2 10 7 4 5 5 6 7 11 3 20 16 17 21 24 29 32 25 28 28 21 29 37 35 17 16 18 20 25 14 4 12 29 10 11 14 19 25 27 33 31 24 19
6 5 10 11 11 15 14 9 7 17 10 9 12 8 10 27 31 30 24 27 28 20 25 29 22 8 22 26 15 16 25 22 16 4 10 25 30 25 26 29 31 28 23 23
6 6 10 10 20 17 11 14 23 16 10 6 3 3 20 30 24 20 18 23 24 24 24 19 8 15 24 23 13 18 14 9 6 3 21 17 22 23 23 28 22 19 21 21
6 5 8 22 15 14 16 35 28 19 14 6 3 11 19 19 17 21 22 26 26 27 26 15 10 17 15 15 11 7 6 6 7 14 16 27 28 28 29 28 20 19 24 27
9 10 9 21 9 17 35 40 22 21 15 12 11 14 14 15 19 24 26 24 22 33 30 14 17 19 15 9 7 11 7 6 20 18 22 31 31 24 25 27 29 30 31 35
6 13 26 5 14 20 28 13 18 26 16 5 6 6 10 12 16 23 24 23 24 28 26 23 18 17 2 7 10 3 8 18 20 21 24 28 25 23 29 30 30 30 33 37
2 14 17 14 22 25 18 17 31 18 9 6 3 3 7 9 15 20 20 16 22 25 26 23 18 15 6 10 18 20 22 23 28 29 32 26 26 25 28 31 34 38 40 44
12 22 14 30 31 28 28 29 20 15 10 9 3 6 4 13 14 18 22 24 26 25 25 24 22 18 14 20 23 25 33 39 37 33 27 22 22 26 25 32 34 35 41 48
10 37 42 34 34 29 32 28 24 21 18 12 6 4 3 2 10 17 22 24 21 23 27 30 27 22 19 19 27 37 45 37 31 25 22 25 30 37 46 49 40 41 41 45
42 37 36 31 33 38 41 36 31 27 20 16 13 5 3 12 18 19 24 22 19 23 27 37 25 18 22 29 34 39 32 34 36 33 29 33 44 49 53 51 49 52 50 54
42 52 29 28 33 37 38 49 41 34 27 16 7 2 9 14 14 22 22 23 25 29 28 30 26 26 26 29 37 34 37 39 42 44 42 42 47 51 51 48 50 51 49 53
32 52 27 39 44 40 50 52 42 31 18 12 7 3 4 8 9 9 8 14 22 29 25 26 28 25 25 23 28 34 36 39 41 44 47 48 52 58 51 46 41 46 52 61
36 35 30 40 45 51 59 46 35 27 19 14 8 6 2 8 13 20 21 26 27 25 28 28 28 25 24 25 32 36 38 41 43 44 44 48 52 43 40 48 61 63 62 59
47 47 44 46 42 53 51 41 33 28 21 19 13 6 8 12 15 20 11 20 21 19 30 24 25 27 27 28 28 30 38 39 37 44 48 49 45 38 45 48 49 52 49 42
61 56 52 48 46 56 59 53 43 24 24 22 9 2 4 9 14 16 21 11 20 20 24 22 23 25 31 29 32 37 36 36 35 33 33 30 33 35 39 37 43 50 48 42
64 62 52 45 50 60 62 47 33 29 27 15 6 1 6 7 12 15 17 15 18 16 14 17 23 28 29 34 34 28 34 33 27 24 31 29 36 39 35 41 45 50 46 41
51 43 43 60 63 53 49 24 25 26 13 5 5 14 16 12 9 14 14 14 15 15 9 19 18 24 33 35 32 30 32 34 33 25 25 31 32 31 41 45 42 42 39 36
23 30 49 65 77 72 50 31 17 10 24 11 9 6 6 6 3 7 10 8 11 9 12 17 23 24 33 23 23 29 30 30 15 27 24 26 27 41 46 41 37 34 34 34
39 46 48 46 21 46 14 29 48 43 25 16 11 13 11 3 2 13 21 19 14 13 18 24 14 24 25 23 25 29 30 25 26 18 23 32 47 51 41 34 31 26 35 43
39 41 30 15 4 30 32 40 32 23 20 12 12 15 13 3 12 13 12 16 19 16 20 15 23 27 28 26 27 23 21 23 27 24 34 45 53 45 28 27 24 29 40 46
33 40 31 23 18 40 52 25 22 18 15 19 19 7 7 16 18 3 8 7 7 10 12 17 24 22 40 38 31 31 23 27 35 36 41 50 51 44 33 28 25 30 36 39
20 29 30 30 38 55 31 26 24 23 19 13 3 5 11 11 6 2 3 7 13 19 25 32 30 29 32 43 28 21 26 30 34 40 39 49 50 37 35 32 31 34 37 35
7 24 16 46 48 40 35 31 30 18 7 6 2 2 3 7 7 13 19 27 35 36 35 34 41 42 39 31 27 28 30 34 40 36 40 47 45 36 36 31 30 31 33 34
Wind_Direction_850mb
220 40 43 26 93 77 62 269 110 267 354 293 264 248 183 64 87 55 3 1 2 357 325 290 252 254 242 214 226 213 233 240 235 232 213 235 221 231 246 265 278 272 284 282
354 64 17 104 64 89 122 174 114 130 171 274 76 82 57 52 44 35 29 9 354 348 342 333 289 261 321 31 305 26 2 299 267 264 243 237 238 243 260 265 268 274 289 287
277 8 36 339 16 18 331 35 125 152 188 71 50 70 53 43 42 20 1 358 360 341 328 334 317 277 272 307 317 273 264 270 263 243 252 241 243 253 265 263 279 299 297 286
237 27 261 235 206 188 124 103 74 79 82 49 72 103 31 44 28 8 359 358 346 345 342 336 331 309 351 313 106 323 223 158 112 162 309 285 262 267 272 286 303 312 301 287
116 164 288 279 202 245 151 196 93 128 67 45 41 36 35 22 17 7 6 360 355 2 344 326 328 322 308 331 313 325 326 187 291 253 292 288 294 289 295 302 305 305 298 285
133 157 210 241 140 114 71 330 119 119 83 39 34 41 276 1 2 3 1 357 355 354 6 345 340 299 307 333 8 31 1 316 292 176 329 326 313 298 301 305 302 295 291 289
144 173 270 253 133 125 99 231 172 147 124 44 52 294 356 1 6 18 22 7 360 8 20 6 334 305 312 314 295 341 354 87 153 154 287 307 321 309 308 314 303 296 299 294
94 110 251 196 133 170 179 161 167 170 161 166 40 10 13 22 34 14 24 13 8 2 1 12 11 339 335 330 18 17 43 119 309 308 314 331 333 329 327 328 324 306 296 294
149 214 308 206 240 151 162 159 165 171 174 141 97 54 38 35 29 36 17 18 11 3 6 5 346 357 13 85 33 38 34 312 312 313 318 330 328 327 334 330 306 299 293 300
91 341 352 242 145 162 161 166 171 171 160 135 93 33 27 23 24 27 19 9 1 1 359 352 358 2 28 3 13 332 289 312 315 315 313 316 309 317 318 308 305 309 309 310
310 278 3 119 166 179 185 196 161 153 152 144 247 5 356 24 5 0 360 2 357 356 8 8 351 342 323 338 337 323 323 332 330 323 317 306 305 311 311 313 307 305 307 314
219 206 180 195 195 207 204 182 187 184 152 166 271 346 344 348 339 342 348 349 357 5 4 358 354 351 340 331 334 338 338 332 328 327 325 330 324 321 318 315 308 307 313 311
226 203 217 205 212 227 215 192 187 180 178 173 149 144 294 298 335 334 341 347 1 0 357 344 329 329 326 339 343 340 333 333 334 331 326 322 324 320 321 329 316 318 311 318
229 196 205 212 222 225 189 181 174 161 154 153 166 180 327 338 342 353 338 338 348 349 350 0 348 346 336 342 339 334 343 349 344 333 328 326 327 324 320 315 318 314 318 322
206 204 226 223 192 177 187 175 167 160 156 159 185 290 324 340 324 316 327 338 335 346 351 347 339 331 325 329 328 330 335 340 341 339 332 326 327 326 326 323 324 319 325 332
218 221 232 209 201 196 190 181 179 161 169 167 170 328 336 313 345 3 9 340 330 331 337 329 327 329 332 335 339 341 339 339 338 336 334 333 331 331 332 334 328 324 333 335
206 206 204 202 220 197 187 185 180 166 159 184 200 196 191 347 357 359 9 14 4 350 347 342 338 350 340 329 329 334 337 339 338 337 336 330 326 329 331 333 329 332 326 329
237 246 248 243 234 191 177 179 175 165 176 184 192 251 317 337 348 359 360 346 353 355 1 1 354 344 347 341 338 346 342 338 338 341 342 338 337 344 353 347 340 343 343 337
254 247 242 227 214 195 183 178 173 175 186 189 200 118 20 343 338 339 344 313 352 2 351 358 0 348 338 342 340 334 336 340 349 360 8 5 354 353 354 355 349 346 345 343
261 260 238 217 197 190 177 174 166 168 174 181 159 62 19 15 20 18 15 8 353 9 2 342 342 334 337 335 336 337 344 343 353 5 354 354 348 348 354 350 344 341 341 338
254 228 192 174 163 145 122 100 124 101 276 199 113 100 74 82 35 351 353 344 344 343 337 322 319 335 339 342 338 332 345 343 348 354 344 334 344 348 344 340 338 338 339 340
236 161 151 154 158 148 137 113 305 136 210 198 187 149 139 115 311 319 347 307 317 317 315 326 334 337 345 346 341 341 333 336 341 334 327 337 344 342 345 347 349 351 354 359
135 136 135 137 3 300 152 171 161 182 179 166 191 234 245 140 315 325 330 328 321 334 328 334 331 343 336 321 323 309 308 314 332 329 339 348 348 345 345 355 359 10 7 2
166 166 185 195 206 292 223 168 180 173 159 175 195 176 165 281 341 348 336 338 336 332 335 342 339 343 337 309 340 332 306 305 308 326 340 343 344 345 346 352 356 350 351 349
256 261 235 232 214 234 203 175 172 191 206 188 181 198 283 321 344 341 319 310 309 334 349 340 329 339 331 319 317 313 301 304 313 322 337 341 344 342 340 337 333 332 339 339
221 206 228 206 195 195 182 171 146 139 149 150 114 350 344 1 3 137 221 316 348 344 337 332 333 340 329 315 303 298 308 305 319 328 338 340 343 334 332 329 329 330 332 333
187 144 169 152 157 152 139 125 132 127 117 69 128 281 271 122 30 353 340 338 336 338 328 324 323 318 317 299 285 291 289 313 320 320 336 338 345 335 332 335 335 334 333 332